LZ0VRC-10 Weather Reports


time (UTC)temp
C
wind
direction
speed
KPH
gust
KPH
rain 1hr
cm
rain 24hr
cm
rain mn
cm
humidity
%
barometer
mb
20260507103455 23 0.0 0.0 0.00 0.00 0.00 42 1017.0
20260507101955 22 0.0 0.0 0.00 0.00 0.00 43 1017.1
20260507100455 23 0.0 0.0 0.00 0.00 0.00 42 1017.1
20260507094955 23 0.0 0.0 0.00 0.00 0.00 41 1017.1
20260507093500 24 0.0 0.0 0.00 0.00 0.00 37 1017.1
20260507093455 24 0.0 0.0 0.00 0.00 0.00 37 1017.1
20260507091955 24 0.0 0.0 0.00 0.00 0.00 36 1017.1
20260507090500 23 0.0 0.0 0.00 0.00 0.00 37 1017.0
20260507090455 23 0.0 0.0 0.00 0.00 0.00 37 1017.0
20260507085000 25 0.0 0.0 0.00 0.00 0.00 33 1017.0
20260507084955 25 0.0 0.0 0.00 0.00 0.00 33 1017.0
20260507083500 26 0.0 0.0 0.00 0.00 0.00 32 1017.0
20260507083455 26 0.0 0.0 0.00 0.00 0.00 32 1017.0
20260507081955 23 0.0 0.0 0.00 0.00 0.00 36 1016.9
20260507080455 23 0.0 0.0 0.00 0.00 0.00 37 1016.8
20260507074955 26 0.0 0.0 0.00 0.00 0.00 30 1016.7
20260507073455 26 0.0 0.0 0.00 0.00 0.00 30 1016.7
20260507071955 25 0.0 0.0 0.00 0.00 0.00 32 1016.8
20260507070500 24 0.0 0.0 0.00 0.00 0.00 36 1016.8
20260507070455 24 0.0 0.0 0.00 0.00 0.00 36 1016.8
20260507065000 20 0.0 0.0 0.00 0.00 0.00 45 1016.9
20260507064955 20 0.0 0.0 0.00 0.00 0.00 45 1016.9
20260507063500 20 0.0 0.0 0.00 0.00 0.00 47 1016.9
20260507063455 20 0.0 0.0 0.00 0.00 0.00 47 1016.9
20260507061955 19 0.0 0.0 0.00 0.00 0.00 49 1016.7
20260507060455 19 0.0 0.0 0.00 0.00 0.00 49 1016.5
20260507054955 17 0.0 0.0 0.00 0.00 0.00 52 1016.4
20260507053500 19 0.0 0.0 0.00 0.00 0.00 47 1016.3
20260507053455 19 0.0 0.0 0.00 0.00 0.00 47 1016.3
20260507052000 20 0.0 0.0 0.00 0.00 0.00 44 1015.8
20260507051955 20 0.0 0.0 0.00 0.00 0.00 44 1015.8
20260507050500 19 0.0 0.0 0.00 0.00 0.00 45 1015.7
20260507050455 19 0.0 0.0 0.00 0.00 0.00 45 1015.7
20260507044955 18 0.0 0.0 0.00 0.00 0.00 46 1015.4
20260507043500 18 0.0 0.0 0.00 0.00 0.00 45 1015.4
20260507043455 18 0.0 0.0 0.00 0.00 0.00 45 1015.4
20260507042000 18 0.0 0.0 0.00 0.00 0.00 45 1015.2
20260507041955 18 0.0 0.0 0.00 0.00 0.00 45 1015.2
20260507040500 18 0.0 0.0 0.00 0.00 0.00 46 1015.2
20260507040455 18 0.0 0.0 0.00 0.00 0.00 46 1015.2
20260507035000 16 0.0 0.0 0.00 0.00 0.00 49 1015.0
20260507034955 16 0.0 0.0 0.00 0.00 0.00 49 1015.0
20260507033456 16 0.0 0.0 0.00 0.00 0.00 49 1015.0
20260507031956 18 0.0 0.0 0.00 0.00 0.00 40 1014.4
20260507030456 20 0.0 0.0 0.00 0.00 0.00 37 1014.3
20260507024956 20 0.0 0.0 0.00 0.00 0.00 35 1014.3
20260507023500 20 0.0 0.0 0.00 0.00 0.00 36 1014.2
20260507023456 20 0.0 0.0 0.00 0.00 0.00 36 1014.2
20260507021956 19 0.0 0.0 0.00 0.00 0.00 38 1014.1
20260507020456 18 0.0 0.0 0.00 0.00 0.00 40 1014.1
20260507015001 19 0.0 0.0 0.00 0.00 0.00 39 1014.1
20260507014956 19 0.0 0.0 0.00 0.00 0.00 39 1014.1
20260507013501 20 0.0 0.0 0.00 0.00 0.00 36 1014.0
20260507013456 20 0.0 0.0 0.00 0.00 0.00 36 1014.0
20260507011956 21 0.0 0.0 0.00 0.00 0.00 35 1013.9
20260507010456 20 0.0 0.0 0.00 0.00 0.00 36 1013.8
20260507005001 20 0.0 0.0 0.00 0.00 0.00 35 1013.8
20260507004956 20 0.0 0.0 0.00 0.00 0.00 35 1013.8
20260507003456 21 0.0 0.0 0.00 0.00 0.00 33 1013.7
20260507001956 21 0.0 0.0 0.00 0.00 0.00 34 1013.7
20260507000456 21 0.0 0.0 0.00 0.00 0.00 34 1013.6
20260506234956 19 0.0 0.0 0.00 0.00 0.00 39 1013.8
20260506233501 18 0.0 0.0 0.00 0.00 0.00 42 1013.8
20260506233456 18 0.0 0.0 0.00 0.00 0.00 42 1013.8
20260506231956 21 0.0 0.0 0.00 0.00 0.00 34 1013.7
20260506230501 21 0.0 0.0 0.00 0.00 0.00 33 1013.7
20260506230456 21 0.0 0.0 0.00 0.00 0.00 33 1013.7
20260506225001 22 0.0 0.0 0.00 0.00 0.00 32 1013.6
20260506224956 22 0.0 0.0 0.00 0.00 0.00 32 1013.6
20260506223456 22 0.0 0.0 0.00 0.00 0.00 32 1013.6
20260506221956 21 0.0 0.0 0.00 0.00 0.00 33 1013.7
20260506220501 21 0.0 0.0 0.00 0.00 0.00 34 1013.7
20260506220456 21 0.0 0.0 0.00 0.00 0.00 34 1013.7
20260506215001 17 0.0 0.0 0.00 0.00 0.00 46 1013.9
20260506214956 17 0.0 0.0 0.00 0.00 0.00 46 1013.9
20260506213501 18 0.0 0.0 0.00 0.00 0.00 45 1013.9
20260506213456 18 0.0 0.0 0.00 0.00 0.00 45 1013.9
20260506212001 18 0.0 0.0 0.00 0.00 0.00 42 1013.9
20260506211956 18 0.0 0.0 0.00 0.00 0.00 42 1013.9
20260506210501 18 0.0 0.0 0.00 0.00 0.00 43 1013.9
20260506210456 18 0.0 0.0 0.00 0.00 0.00 43 1013.9
20260506205001 18 0.0 0.0 0.00 0.00 0.00 43 1013.9
20260506204956 18 0.0 0.0 0.00 0.00 0.00 43 1013.9
20260506203501 19 0.0 0.0 0.00 0.00 0.00 42 1013.9
20260506203456 19 0.0 0.0 0.00 0.00 0.00 42 1013.9
20260506201956 20 0.0 0.0 0.00 0.00 0.00 39 1013.8
20260506200456 20 0.0 0.0 0.00 0.00 0.00 38 1013.8
20260506195001 20 0.0 0.0 0.00 0.00 0.00 38 1013.8
20260506194956 20 0.0 0.0 0.00 0.00 0.00 38 1013.8
20260506193501 20 0.0 0.0 0.00 0.00 0.00 40 1013.7
20260506193456 20 0.0 0.0 0.00 0.00 0.00 40 1013.7
20260506192001 20 0.0 0.0 0.00 0.00 0.00 40 1013.7
20260506191956 20 0.0 0.0 0.00 0.00 0.00 40 1013.7
20260506190501 20 0.0 0.0 0.00 0.00 0.00 39 1013.6
20260506190456 20 0.0 0.0 0.00 0.00 0.00 39 1013.6
20260506185001 20 0.0 0.0 0.00 0.00 0.00 39 1013.6
20260506184956 20 0.0 0.0 0.00 0.00 0.00 39 1013.6
20260506183456 20 0.0 0.0 0.00 0.00 0.00 39 1013.5
20260506182001 20 0.0 0.0 0.00 0.00 0.00 38 1013.4
20260506181957 20 0.0 0.0 0.00 0.00 0.00 38 1013.4
20260506180457 21 0.0 0.0 0.00 0.00 0.00 38 1013.1
20260506174957 21 0.0 0.0 0.00 0.00 0.00 36 1013.0
20260506173502 22 0.0 0.0 0.00 0.00 0.00 33 1013.0
20260506173457 22 0.0 0.0 0.00 0.00 0.00 33 1013.0
20260506171957 23 0.0 0.0 0.00 0.00 0.00 31 1012.9
20260506170502 23 0.0 0.0 0.00 0.00 0.00 30 1012.9
20260506170457 23 0.0 0.0 0.00 0.00 0.00 30 1012.9
20260506165011 24 0.0 0.0 0.00 0.00 0.00 30 1012.8
20260506165001 24 0.0 0.0 0.00 0.00 0.00 30 1012.8
20260506164957 24 0.0 0.0 0.00 0.00 0.00 30 1012.8
20260506163457 25 0.0 0.0 0.00 0.00 0.00 29 1012.7
20260506162002 25 0.0 0.0 0.00 0.00 0.00 28 1012.7
20260506161957 25 0.0 0.0 0.00 0.00 0.00 28 1012.7
20260506160502 26 0.0 0.0 0.00 0.00 0.00 27 1012.7
20260506160457 26 0.0 0.0 0.00 0.00 0.00 27 1012.7
20260506155011 25 0.0 0.0 0.00 0.00 0.00 28 1012.8
20260506155002 25 0.0 0.0 0.00 0.00 0.00 28 1012.8
20260506154957 25 0.0 0.0 0.00 0.00 0.00 28 1012.8
20260506153502 28 0.0 0.0 0.00 0.00 0.00 24 1012.8
20260506153457 28 0.0 0.0 0.00 0.00 0.00 24 1012.8
20260506152011 28 0.0 0.0 0.00 0.00 0.00 23 1012.8
20260506152002 28 0.0 0.0 0.00 0.00 0.00 23 1012.8
20260506151957 28 0.0 0.0 0.00 0.00 0.00 23 1012.8
20260506150502 30 0.0 0.0 0.00 0.00 0.00 22 1012.9
20260506150457 30 0.0 0.0 0.00 0.00 0.00 22 1012.9
20260506145011 29 0.0 0.0 0.00 0.00 0.00 23 1013.0
20260506145002 29 0.0 0.0 0.00 0.00 0.00 23 1013.0
20260506144957 29 0.0 0.0 0.00 0.00 0.00 23 1013.0
20260506143502 30 0.0 0.0 0.00 0.00 0.00 22 1013.0
20260506143457 30 0.0 0.0 0.00 0.00 0.00 22 1013.0
20260506142002 30 0.0 0.0 0.00 0.00 0.00 21 1013.1
20260506141957 30 0.0 0.0 0.00 0.00 0.00 21 1013.1
20260506140502 31 0.0 0.0 0.00 0.00 0.00 21 1013.1
20260506140457 31 0.0 0.0 0.00 0.00 0.00 21 1013.1
20260506135002 32 0.0 0.0 0.00 0.00 0.00 21 1013.1
20260506134957 32 0.0 0.0 0.00 0.00 0.00 21 1013.1
20260506133502 31 0.0 0.0 0.00 0.00 0.00 22 1013.2
20260506133457 31 0.0 0.0 0.00 0.00 0.00 22 1013.2
20260506132002 31 0.0 0.0 0.00 0.00 0.00 21 1013.4
20260506131957 31 0.0 0.0 0.00 0.00 0.00 21 1013.4
20260506130502 34 0.0 0.0 0.00 0.00 0.00 17 1013.5
20260506130457 34 0.0 0.0 0.00 0.00 0.00 17 1013.5
20260506124957 33 0.0 0.0 0.00 0.00 0.00 19 1013.5
20260506123502 32 0.0 0.0 0.00 0.00 0.00 20 1013.8
20260506123457 32 0.0 0.0 0.00 0.00 0.00 20 1013.8
20260506122002 31 0.0 0.0 0.00 0.00 0.00 21 1013.9
20260506121957 31 0.0 0.0 0.00 0.00 0.00 21 1013.9
20260506120502 32 0.0 0.0 0.00 0.00 0.00 20 1014.2
20260506120457 32 0.0 0.0 0.00 0.00 0.00 20 1014.2
20260506115005 32 0.0 0.0 0.00 0.00 0.00 20 1014.3
20260506114957 32 0.0 0.0 0.00 0.00 0.00 20 1014.3
20260506113502 33 0.0 0.0 0.00 0.00 0.00 18 1014.5
20260506113457 33 0.0 0.0 0.00 0.00 0.00 18 1014.5
20260506112002 33 0.0 0.0 0.00 0.00 0.00 18 1014.6
20260506111957 33 0.0 0.0 0.00 0.00 0.00 18 1014.6
20260506110502 34 0.0 0.0 0.00 0.00 0.00 17 1014.8
20260506110457 34 0.0 0.0 0.00 0.00 0.00 17 1014.8
20260506105002 32 0.0 0.0 0.00 0.00 0.00 19 1014.9
20260506104957 32 0.0 0.0 0.00 0.00 0.00 19 1014.9